Weather in Hamadan

Iran     34°47′53″N   48°30′52″E
temp.,
°C
wind,
m/s
gust,
m/s
humid.,
%
clouds,
%
prec.,
mm/h
press.,
hPa
HPBL,
m
14 may, fri
fri1401:30+11s1168100 0.0 101626
04:30+9ne22760 0.0 101631
07:30+10ne11720 0.0 101791
10:30+15nne21460 0.0 10151064
13:30+19n443379 0.0 10132886
16:30+10sse6668100 2.4 1015145
19:30+13ne445493 0.6 1014297
22:30+11ese2272100 0.8 101665
15 may, sat
sat1501:30+10ene2275100 0.0 101658
04:30+9ene22770 0.0 101541
07:30+10ene23780 0.0 1016197
10:30+14ene33540 0.0 10151018
13:30+17e434195 0.1 10122320
16:30+16ne434677 0.4 10131589
19:30+15ne344823 0.1 1013619
22:30+12ese33613 0.3 101585
16 may, sun
sun1601:30+11ese33632 0.0 101462
04:30+10e22670 0.0 101434
07:30+11e22650 0.0 1015122
10:30+16ese33460 0.0 10141329
13:30+20ese233227 0.0 10122576
16:30+20nnw122793 0.1 10101709
19:30+19wnw013410 0.1 1010161
22:30+15ese44384 0.1 101361
17 may, mon
mon1701:30+13se44445 0.0 101459
04:30+13s32454 0.0 101323
07:30+15s11460 0.0 101426
10:30+20wnw23250 0.0 10132345
13:30+23w34160 0.0 10123210
16:30+23sw231585 0.0 10103650
19:30+20nw222694 0.0 1011210
22:30+16se113491 0.1 101422
18 may, tue
tue1801:30+16s2230100 0.0 101312
04:30+15sse333250 0.0 101216
07:30+17sse3434100 0.0 101365
10:30+22ssw281828 0.0 10112802
13:30+25ssw8111799 0.0 10094275
16:30+25sw121417100 0.0 10083918
19:30+20sw914220 0.0 1009846
22:30+17s44250 0.0 101151